George, South Africa

3:00 AM SAST on December 11, 2017 (GMT +0200)
George

Weather History for FAGG - March, 2013

Change the Weather History Date:

Thursday, March 28, 2013

  Actual Average Record
Temperature  
Mean Temperature 64 °F -  
Max Temperature 73 °F 70 °F 82 °F (2012)
Min Temperature 55 °F 53 °F 51 °F (2002)
Degree Days  
Heating Degree Days 1    
Growing Degree Days 14 (Base 50)    
Moisture  
Dew Point 58 °F    
Average Humidity 78    
Maximum Humidity 94    
Minimum Humidity 59    
Precipitation  
Precipitation 0.00 in - - ()
Sea Level Pressure  
Sea Level Pressure 29.98 in    
Wind  
Wind Speed 4 mph ()    
Max Wind Speed 12 mph    
Max Gust Speed -    
Visibility 8.1 miles    
Events      
Averages and records for this station are not official NWS values.
T = Trace of Precipitation, MM = Missing Value Source: Averaged Metar Reports

Daily Weather History Graph

Daily Weather History Graph

Search for Another Location

Airport or City:

Trip Planner

Search our weather history database for the weather conditions in past years. The results will help you decide how hot, cold, wet, or windy it might be!

Date:

Astronomy

Mar. 28, 2013 Rise Set
Actual Time 6:39 AM SAST 6:30 PM SAST
Civil Twilight 6:14 AM SAST 6:55 PM SAST
Nautical Twilight 5:45 AM SAST 7:24 PM SAST
Astronomical Twilight 5:16 AM SAST 7:53 PM SAST
Moon 7:05 PM SAST (3/28) 7:38 AM SAST (3/28)
Length of Visible Light 12h 40m
Length of Day
11h 50m
Full, 99% of the Moon is Illuminated
Mar 28
Full
Apr 3
Last Quarter
Apr 10
New
Apr 18
First Quarter
Apr 25
Full

Hourly Weather History & Observations

Time (SAST) Temp. Dew Point Humidity Pressure Visibility Wind Dir Wind Speed Gust Speed Precip Events Conditions
12:00 AM 60.8 °F 53.6 °F 77% 29.92 in - NNE 3.5 mph - N/A   Clear
1:00 AM 60.8 °F 53.6 °F 77% 29.89 in - North 2.3 mph - N/A   Clear
2:00 AM 57 °F 54 °F 86% 29.91 in 6 mi WNW 5.8 mph - -  
2:00 AM 57.2 °F 55.4 °F 94% 29.89 in - NNW 3.5 mph - N/A   Clear
3:00 AM 59.0 °F 53.6 °F 82% 29.89 in - Variable 1.2 mph - N/A   Clear
4:00 AM 57.2 °F 53.6 °F 88% 29.89 in - NNW 3.5 mph - N/A   Clear
5:00 AM 57 °F 53 °F 84% 29.90 in 12 mi North 3.5 mph - -  
5:00 AM 57.2 °F 53.6 °F 88% 29.89 in - North 3.5 mph - N/A   Clear
6:00 AM 57.2 °F 53.6 °F 88% 29.89 in - North 4.6 mph - N/A   Clear
7:00 AM 57.2 °F 53.6 °F 88% 29.89 in - North 2.3 mph - N/A   Clear
8:00 AM 62 °F 56 °F 76% 29.94 in 12 mi NNW 3.5 mph - -  
8:00 AM 62.6 °F 57.2 °F 82% 29.92 in - NNW 3.5 mph - N/A   Clear
9:00 AM 69.8 °F 59.0 °F 68% 29.92 in - Variable 2.3 mph - N/A   Clear
10:00 AM 71.6 °F 59.0 °F 64% 29.95 in - Variable 2.3 mph - N/A   Clear
11:00 AM 72 °F 61 °F 59% 29.97 in 12 mi South 9.2 mph - -   Clear
11:00 AM 71.6 °F 60.8 °F 69% 29.95 in - South 9.2 mph - N/A   Clear
12:00 PM 73.4 °F 60.8 °F 65% 29.95 in - SSE 9.2 mph - N/A   Clear
1:00 PM 71.6 °F 60.8 °F 69% 29.98 in 6.2 mi SSE 9.2 mph - N/A   Partly Cloudy
2:00 PM 72 °F 62 °F 63% 29.96 in 12 mi SSE 10.4 mph - -   Partly Cloudy
2:00 PM 71.6 °F 60.8 °F 69% 29.98 in 6.2 mi SSE 10.4 mph - N/A   Scattered Clouds
3:00 PM 69.8 °F 60.8 °F 73% 30.01 in 6.2 mi South 11.5 mph - N/A   Mostly Cloudy
4:00 PM 68.0 °F 60.8 °F 78% 30.01 in 6.2 mi SSE 11.5 mph - N/A   Mostly Cloudy
5:00 PM 68 °F 60 °F 69% 30.01 in 12 mi ESE 6.9 mph - -   Mostly Cloudy
5:00 PM 68.0 °F 60.8 °F 78% 30.01 in 6.2 mi ESE 6.9 mph - N/A   Mostly Cloudy
6:00 PM 68.0 °F 59.0 °F 73% 30.04 in 6.2 mi East 6.9 mph - N/A   Mostly Cloudy
7:00 PM 64.4 °F 59.0 °F 83% 30.09 in 6.2 mi SE 4.6 mph - N/A   Partly Cloudy
8:00 PM 63 °F 60 °F 88% 30.11 in 12 mi ENE 4.6 mph - -   Scattered Clouds
8:00 PM 62.6 °F 59.0 °F 88% 30.09 in 6.2 mi ENE 5.8 mph - N/A   Partly Cloudy
9:00 PM 64.4 °F 60.8 °F 88% 30.12 in 6.2 mi ENE 2.3 mph - N/A   Mostly Cloudy
10:00 PM 64.4 °F 60.8 °F 88% 30.15 in 6.2 mi WSW 8.1 mph - N/A   Overcast
11:00 PM 62.6 °F 59.0 °F 88% 30.15 in 6.2 mi SW 5.8 mph - N/A   Overcast